KK7N Weather Reports


Display with metric or nautical units.
time (UTC)temp
F
wind
direction
speed
MPH
gust
MPH
rain 1hr
in
rain 24hr
in
rain mn
in
humidity
%
barometer
mb
20260510001546 80 294 1.0 5.0 0.00 0.00 0.00 34 1015.0
20260510000044 81 271 2.0 9.0 0.00 0.00 0.00 31 1015.0
20260509234543 80 300 3.0 9.0 0.00 0.00 0.00 35 1015.0
20260509233053 79 292 2.0 10.0 0.00 0.00 0.00 39 1015.2
20260509231553 79 279 4.0 9.0 0.00 0.00 0.00 36 1015.4
20260509230058 79 294 3.0 9.0 0.00 0.00 0.00 37 1015.7
20260509224548 79 323 3.0 11.0 0.00 0.00 0.00 41 1015.8
20260509223049 79 0 1.0 11.0 0.00 0.00 0.00 47 1016.0
20260509221550 78 295 3.0 12.0 0.00 0.00 0.00 43 1016.2
20260509220046 79 283 3.0 10.0 0.00 0.00 0.00 44 1016.4
20260509214544 78 284 5.0 12.0 0.00 0.00 0.00 45 1016.6
20260509213051 78 284 1.0 11.0 0.00 0.00 0.00 47 1016.8
20260509211545 78 275 3.0 9.0 0.00 0.00 0.00 43 1016.7
20260509210052 77 0 1.0 7.0 0.00 0.00 0.00 47 1016.8
20260509204550 76 303 2.0 9.0 0.00 0.00 0.00 48 1017.2
20260509203040 76 265 2.0 6.0 0.00 0.00 0.00 50 1017.4
20260509201540 75 0 1.0 5.0 0.00 0.00 0.00 49 1017.7
20260509200048 74 289 0.0 10.0 0.00 0.00 0.00 51 1018.0
20260509194543 73 273 2.0 6.0 0.00 0.00 0.00 54 1018.2
20260509193043 72 276 0.0 3.0 0.00 0.00 0.00 56 1018.4
20260509191543 72 276 0.0 4.0 0.00 0.00 0.00 53 1018.6
20260509190056 72 294 1.0 7.0 0.00 0.00 0.00 58 1018.8
20260509184616 70 0 0.0 4.0 0.00 0.00 0.00 58 1019.0
20260509183047 69 288 1.0 4.0 0.00 0.00 0.00 58 1019.3
20260509181547 68 290 1.0 5.0 0.00 0.00 0.00 62 1019.4
20260509180043 67 0 2.0 6.0 0.00 0.00 0.00 66 1019.5
20260509174542 65 0 0.0 4.0 0.00 0.00 0.00 67 1019.8
20260509173047 64 0 0.0 4.0 0.00 0.00 0.00 74 1020.0
20260509171544 62 271 1.0 6.0 0.00 0.00 0.00 74 1020.3
20260509170043 61 0 0.0 2.0 0.00 0.00 0.00 80 1020.4
20260509164542 58 0 0.0 4.0 0.00 0.00 0.00 81 1020.6
20260509163105 56 0 1.0 4.0 0.00 0.00 0.00 87 1020.9
20260509161544 53 280 0.0 3.0 0.00 0.00 0.00 92 1021.0
20260509160047 52 0 0.0 1.0 0.00 0.00 0.00 95 1020.9
20260509154548 50 269 0.0 1.0 0.00 0.00 0.00 95 1021.0
20260509153043 49 0 0.0 1.0 0.00 0.00 0.00 96 1021.5
20260509151542 48 0 0.0 0.0 0.00 0.00 0.00 95 1021.7
20260509150044 48 0 0.0 0.0 0.00 0.00 0.00 95 1021.7
20260509144545 47 0 0.0 0.0 0.00 0.00 0.00 96 1021.7
20260509143049 47 0 0.0 1.0 0.00 0.00 0.00 95 1021.7
20260509141548 46 0 0.0 1.0 0.00 0.00 0.00 95 1021.5
20260509140049 46 0 0.0 0.0 0.00 0.00 0.00 95 1021.6
20260509134543 46 0 0.0 0.0 0.00 0.00 0.00 95 1021.4
20260509133047 46 0 0.0 0.0 0.00 0.00 0.00 94 1021.5
20260509131544 46 0 0.0 1.0 0.00 0.00 0.00 94 1021.4
20260509130051 46 0 0.0 0.0 0.00 0.00 0.00 94 1021.4
20260509124554 46 0 0.0 0.0 0.00 0.00 0.00 93 1021.6
20260509123103 47 0 0.0 2.0 0.00 0.00 0.00 93 1021.6
20260509121549 47 0 0.0 0.0 0.00 0.00 0.00 93 1021.5
20260509120045 47 0 0.0 0.0 0.00 0.00 0.00 93 1021.4
20260509114544 47 0 0.0 1.0 0.00 0.00 0.00 93 1021.5
20260509113105 48 0 0.0 0.0 0.00 0.00 0.00 92 1021.6
20260509111551 48 0 0.0 0.0 0.00 0.00 0.00 92 1021.9
20260509110045 49 0 0.0 0.0 0.00 0.00 0.00 91 1022.0
20260509104555 49 0 0.0 1.0 0.00 0.00 0.00 91 1021.9
20260509103054 49 0 0.0 0.0 0.00 0.00 0.00 91 1021.9
20260509101543 50 0 0.0 3.0 0.00 0.00 0.00 91 1021.9
20260509100105 50 0 0.0 0.0 0.00 0.00 0.00 88 1021.9
20260509094541 51 0 0.0 0.0 0.00 0.00 0.00 87 1022.0
20260509093045 51 0 0.0 0.0 0.00 0.00 0.00 87 1021.9
20260509091556 52 0 0.0 0.0 0.00 0.00 0.00 86 1022.1
20260509090042 52 0 0.0 0.0 0.00 0.00 0.00 86 1022.3
20260509084541 53 0 0.0 0.0 0.00 0.00 0.00 85 1022.4
20260509083047 53 0 0.0 1.0 0.00 0.00 0.00 85 1022.6
20260509081556 55 0 0.0 1.0 0.00 0.00 0.00 82 1022.7
20260509080049 56 0 0.0 0.0 0.00 0.00 0.00 81 1022.6
20260509074545 56 0 0.0 0.0 0.00 0.00 0.00 79 1022.7
20260509073045 57 0 0.0 0.0 0.00 0.00 0.00 76 1022.7
20260509071540 58 0 0.0 0.0 0.00 0.00 0.00 74 1022.8
20260509070047 58 0 0.0 2.0 0.00 0.00 0.00 73 1022.6
20260509064542 59 0 0.0 0.0 0.00 0.00 0.00 72 1022.6
20260509063043 59 0 0.0 0.0 0.00 0.00 0.00 71 1022.5
20260509061555 60 0 0.0 1.0 0.00 0.00 0.00 69 1022.4
20260509060045 60 0 0.0 1.0 0.00 0.00 0.00 69 1022.4
20260509054555 60 277 0.0 6.0 0.00 0.00 0.00 67 1022.4
20260509053057 60 0 0.0 1.0 0.00 0.00 0.00 67 1022.4
20260509051548 60 0 0.0 1.0 0.00 0.00 0.00 68 1022.4
20260509050043 61 0 0.0 1.0 0.00 0.00 0.00 68 1022.2
20260509044545 61 0 0.0 1.0 0.00 0.00 0.00 69 1022.0
20260509043049 61 280 0.0 1.0 0.00 0.00 0.00 67 1021.9
20260509041543 62 0 0.0 1.0 0.00 0.00 0.00 65 1021.7
20260509040044 63 0 0.0 0.0 0.00 0.00 0.00 61 1021.6
20260509034542 63 0 0.0 0.0 0.00 0.00 0.00 60 1021.4
20260509033045 64 0 0.0 2.0 0.00 0.00 0.00 58 1021.3
20260509031548 65 0 0.0 2.0 0.00 0.00 0.00 56 1021.1
20260509030042 66 0 0.0 2.0 0.00 0.00 0.00 55 1021.1
20260509024542 67 0 0.0 1.0 0.00 0.00 0.00 54 1020.9
20260509023053 68 0 0.0 3.0 0.00 0.00 0.00 52 1020.9
20260509021546 68 0 0.0 3.0 0.00 0.00 0.00 50 1020.9
20260509020043 69 0 0.0 6.0 0.00 0.00 0.00 48 1020.9
20260509014543 70 279 2.0 6.0 0.00 0.00 0.00 47 1020.9
20260509013042 70 0 1.0 9.0 0.00 0.00 0.00 47 1020.9
20260509011548 70 254 1.0 11.0 0.00 0.00 0.00 47 1021.0
20260509010047 70 296 2.0 10.0 0.00 0.00 0.00 46 1021.1
20260509004545 70 0 1.0 7.0 0.00 0.00 0.00 48 1021.2
20260509003044 69 294 1.0 11.0 0.00 0.00 0.00 49 1021.3